Location: Newark
(28.4500°N, 16.2500°W)
Time: 09:31:13
(UTC+00:00)

Hubble Space Telescope - Visible Passes

Search period start: 24 July 2019 00:00
Search period end: 03 August 2019 00:00
Orbit: 536 x 540 km, 28.5° (Epoch: 23 July)

Date Brightness Start Highest point End Pass type
(mag) Time Alt. Az. Time Alt. Az. Time Alt. Az.
25 Jul 2.0 05:51:13 10° SW 05:54:52 30° SSE 05:58:31 10° E visible
26 Jul 1.7 05:40:44 12° SW 05:44:17 37° SSE 05:48:07 10° E visible
27 Jul 1.3 05:30:44 16° SW 05:33:43 45° SSE 05:37:41 10° E visible
28 Jul 1.1 05:20:43 22° SW 05:23:10 54° SSE 05:27:12 10° E visible
29 Jul 0.8 05:10:41 29° WSW 05:12:37 64° SSE 05:16:43 10° E visible
30 Jul 0.7 05:00:39 39° WSW 05:02:04 73° S 05:06:12 10° E visible
31 Jul 0.6 04:50:38 53° WSW 04:51:33 81° S 04:55:41 10° E visible
01 Aug 0.6 04:40:39 73° WSW 04:41:01 87° S 04:45:10 10° E visible
02 Aug 0.7 04:30:43 81° E 04:30:43 81° E 04:34:39 10° E visible
